• In Austria
  • List of Countries
  • For 7 days
  • Water Temperature
  • Satellite Maps
  • Weather Map
  • News
  • Weather Widgets
  • user-avatar
    Login

    Hourly Weather Eremkovichi

    Today, 23 June, Saturday

    Time Temperature Precipitation Wind Pressure Humidity
    00:00 +12°C° 0 mm 1 mps 744 mmHg 82%
    01:00 +12°C° 0 mm 2 mps 744 mmHg 80%
    02:00 +12°C° 0 mm 1 mps 744 mmHg 78%
    03:00 +12°C° 0 mm 2 mps 744 mmHg 79%
    04:00 +12°C° 0 mm 2 mps 744 mmHg 80%
    05:00 +12°C° 0 mm 2 mps 744 mmHg 80%
    06:00 +13°C° 0 mm 2 mps 744 mmHg 80%
    07:00 +14°C° 0 mm 2 mps 744 mmHg 79%
    08:00 +13°C° 0 mm 3 mps 744 mmHg 78%
    09:00 +13°C° 0.1 mm 3 mps 744 mmHg 79%
    10:00 +13°C° 0.1 mm 3 mps 744 mmHg 81%
    11:00 +13°C° 0.1 mm 3 mps 744 mmHg 82%
    12:00 +13°C° 0.2 mm 3 mps 744 mmHg 84%
    13:00 +13°C° 0.2 mm 3 mps 744 mmHg 86%
    14:00 +12°C° 0.2 mm 4 mps 743 mmHg 87%
    15:00 +12°C° 0.3 mm 4 mps 743 mmHg 88%
    16:00 +12°C° 0.3 mm 4 mps 742 mmHg 90%
    17:00 +11°C° 0.3 mm 4 mps 742 mmHg 91%
    18:00 +11°C° 0.7 mm 4 mps 741 mmHg 92%
    19:00 +10°C° 0.7 mm 5 mps 741 mmHg 94%
    20:00 +9°C° 0.7 mm 5 mps 740 mmHg 95%
    21:00 +9°C° 0.8 mm 5 mps 740 mmHg 95%
    22:00 +9°C° 0.8 mm 5 mps 740 mmHg 96%
    23:00 +9°C° 0.8 mm 5 mps 740 mmHg 96%

    Tomorrow, 24 June, Sunday

    Time Temperature Precipitation Wind Pressure Humidity
    00:00 +9°C° 1 mm 5 mps 739 mmHg 96%
    01:00 +10°C° 1 mm 4 mps 739 mmHg 96%
    02:00 +10°C° 1 mm 4 mps 739 mmHg 97%
    03:00 +10°C° 0.9 mm 4 mps 739 mmHg 97%
    04:00 +10°C° 0.9 mm 4 mps 738 mmHg 97%
    05:00 +10°C° 0.9 mm 3 mps 738 mmHg 97%
    06:00 +10°C° 0.5 mm 4 mps 738 mmHg 96%
    07:00 +9°C° 0.5 mm 5 mps 738 mmHg 95%
    08:00 +9°C° 0.5 mm 5 mps 739 mmHg 94%
    09:00 +10°C° 0.1 mm 5 mps 739 mmHg 91%
    10:00 +11°C° 0.1 mm 6 mps 740 mmHg 88%
    11:00 +11°C° 0.1 mm 6 mps 740 mmHg 85%
    12:00 +14°C° 0.1 mm 5 mps 740 mmHg 80%
    13:00 +15°C° 0.1 mm 5 mps 741 mmHg 74%
    14:00 +16°C° 0.1 mm 5 mps 741 mmHg 69%
    15:00 +16°C° 0.1 mm 5 mps 742 mmHg 70%
    16:00 +17°C° 0.1 mm 4 mps 742 mmHg 70%
    17:00 +18°C° 0.1 mm 4 mps 742 mmHg 71%
    18:00 +16°C° 0.1 mm 3 mps 742 mmHg 76%
    19:00 +15°C° 0.1 mm 2 mps 743 mmHg 82%
    20:00 +14°C° 0.1 mm 1 mps 743 mmHg 87%
    21:00 +13°C° 0 mm 1 mps 743 mmHg 89%
    22:00 +12°C° 0 mm 2 mps 743 mmHg 91%
    23:00 +10°C° 0 mm 2 mps 744 mmHg 93%

    Day after tomorrow, 25 June, Monday

    Time Temperature Precipitation Wind Pressure Humidity
    00:00 +10°C° 0 mm 2 mps 744 mmHg 94%
    01:00 +9°C° 0 mm 2 mps 744 mmHg 94%
    02:00 +9°C° 0 mm 2 mps 744 mmHg 95%
    03:00 +9°C° 0 mm 2 mps 744 mmHg 95%
    04:00 +9°C° 0 mm 2 mps 745 mmHg 95%
    05:00 +9°C° 0 mm 2 mps 745 mmHg 95%
    06:00 +11°C° 0 mm 3 mps 745 mmHg 90%
    07:00 +13°C° 0 mm 3 mps 745 mmHg 85%
    08:00 +14°C° 0 mm 4 mps 745 mmHg 81%
    09:00 +15°C° 0.3 mm 4 mps 746 mmHg 79%
    10:00 +16°C° 0.3 mm 5 mps 746 mmHg 76%
    11:00 +17°C° 0.3 mm 5 mps 746 mmHg 74%
    12:00 +17°C° 0.3 mm 5 mps 746 mmHg 72%
    13:00 +19°C° 0.3 mm 5 mps 746 mmHg 70%
    14:00 +19°C° 0.3 mm 5 mps 746 mmHg 67%
    15:00 +19°C° 0.3 mm 4 mps 747 mmHg 69%
    16:00 +19°C° 0.3 mm 4 mps 747 mmHg 71%
    17:00 +19°C° 0.3 mm 3 mps 747 mmHg 73%
    18:00 +18°C° 0.1 mm 3 mps 747 mmHg 77%
    19:00 +16°C° 0.1 mm 2 mps 747 mmHg 81%
    20:00 +15°C° 0.1 mm 1 mps 748 mmHg 85%
    21:00 +14°C° 0 mm 1 mps 748 mmHg 86%
    22:00 +13°C° 0 mm 1 mps 748 mmHg 88%
    23:00 +12°C° 0 mm 2 mps 748 mmHg 90%

    26 June, Tuesday

    Time Temperature Precipitation Wind Pressure Humidity
    00:00 +12°C° 0 mm 2 mps 748 mmHg 90%
    01:00 +10°C° 0 mm 2 mps 749 mmHg 91%
    02:00 +10°C° 0 mm 2 mps 749 mmHg 92%
    03:00 +11°C° 0 mm 1 mps 749 mmHg 92%
    04:00 +12°C° 0 mm 1 mps 749 mmHg 91%
    05:00 +12°C° 0 mm 1 mps 750 mmHg 91%
    06:00 +14°C° 0 mm 1 mps 750 mmHg 86%
    07:00 +16°C° 0 mm 1 mps 750 mmHg 81%
    08:00 +17°C° 0 mm 2 mps 750 mmHg 77%
    09:00 +19°C° 0.1 mm 2 mps 750 mmHg 72%
    10:00 +20°C° 0.1 mm 2 mps 750 mmHg 67%
    11:00 +21°C° 0.1 mm 2 mps 751 mmHg 62%
    12:00 +21°C° 0.2 mm 2 mps 750 mmHg 62%
    13:00 +23°C° 0.2 mm 2 mps 750 mmHg 62%
    14:00 +23°C° 0.2 mm 2 mps 750 mmHg 62%
    15:00 +23°C° 0.3 mm 2 mps 750 mmHg 66%
    16:00 +23°C° 0.3 mm 2 mps 750 mmHg 69%
    17:00 +21°C° 0.3 mm 2 mps 750 mmHg 73%
    18:00 +20°C° 0.5 mm 2 mps 750 mmHg 78%
    19:00 +19°C° 0.5 mm 2 mps 751 mmHg 83%
    20:00 +18°C° 0.5 mm 2 mps 751 mmHg 88%
    21:00 +17°C° 0.2 mm 2 mps 751 mmHg 89%
    22:00 +16°C° 0.2 mm 2 mps 751 mmHg 90%
    23:00 +15°C° 0.2 mm 2 mps 751 mmHg 91%

    27 June, Wednesday

    Time Temperature Precipitation Wind Pressure Humidity
    00:00 +15°C° 0 mm 2 mps 751 mmHg 92%
    01:00 +15°C° 0 mm 2 mps 751 mmHg 92%
    02:00 +14°C° 0 mm 2 mps 751 mmHg 93%
    03:00 +14°C° 0.1 mm 2 mps 751 mmHg 93%
    04:00 +15°C° 0.1 mm 2 mps 751 mmHg 93%
    05:00 +15°C° 0.1 mm 2 mps 751 mmHg 93%
    06:00 +16°C° 0 mm 2 mps 751 mmHg 90%
    07:00 +18°C° 0 mm 2 mps 751 mmHg 87%
    08:00 +20°C° 0 mm 3 mps 752 mmHg 84%
    09:00 +21°C° 0.4 mm 3 mps 751 mmHg 79%
    10:00 +22°C° 0.4 mm 4 mps 751 mmHg 73%
    11:00 +25°C° 0.4 mm 4 mps 751 mmHg 68%
    12:00 +25°C° 0.1 mm 4 mps 751 mmHg 65%
    13:00 +26°C° 0.1 mm 4 mps 751 mmHg 63%
    14:00 +26°C° 0.1 mm 4 mps 750 mmHg 61%
    15:00 +26°C° 0 mm 4 mps 750 mmHg 64%
    16:00 +26°C° 0 mm 4 mps 750 mmHg 67%
    17:00 +26°C° 0 mm 3 mps 750 mmHg 70%
    18:00 +25°C° 0.1 mm 3 mps 750 mmHg 74%
    19:00 +22°C° 0.1 mm 3 mps 750 mmHg 78%
    20:00 +21°C° 0.1 mm 3 mps 750 mmHg 82%
    21:00 +20°C° 0 mm 3 mps 750 mmHg 83%
    22:00 +19°C° 0 mm 3 mps 751 mmHg 85%
    23:00 +18°C° 0 mm 4 mps 751 mmHg 86%

    28 June, Thursday

    Time Temperature Precipitation Wind Pressure Humidity
    00:00 +18°C° 0 mm 4 mps 751 mmHg 86%
    01:00 +18°C° 0 mm 4 mps 751 mmHg 86%
    02:00 +17°C° 0 mm 4 mps 751 mmHg 86%
    03:00 +17°C° 0 mm 4 mps 751 mmHg 86%
    04:00 +16°C° 0 mm 5 mps 751 mmHg 85%
    05:00 +16°C° 0 mm 5 mps 751 mmHg 84%
    06:00 +19°C° 0 mm 5 mps 751 mmHg 81%
    07:00 +20°C° 0 mm 6 mps 750 mmHg 77%
    08:00 +22°C° 0 mm 6 mps 750 mmHg 73%
    09:00 +23°C° 0 mm 7 mps 750 mmHg 70%
    10:00 +24°C° 0 mm 7 mps 750 mmHg 67%
    11:00 +26°C° 0 mm 7 mps 750 mmHg 64%
    12:00 +26°C° 0 mm 7 mps 750 mmHg 65%
    13:00 +27°C° 0 mm 7 mps 750 mmHg 65%
    14:00 +27°C° 0 mm 7 mps 750 mmHg 66%
    15:00 +27°C° 0.1 mm 6 mps 749 mmHg 69%
    16:00 +27°C° 0.1 mm 6 mps 749 mmHg 72%
    17:00 +26°C° 0.1 mm 5 mps 749 mmHg 75%
    18:00 +25°C° 0 mm 5 mps 749 mmHg 77%
    19:00 +23°C° 0 mm 5 mps 748 mmHg 79%
    20:00 +22°C° 0 mm 5 mps 748 mmHg 81%
    21:00 +21°C° 0.2 mm 5 mps 748 mmHg 82%
    22:00 +21°C° 0.2 mm 5 mps 748 mmHg 82%
    23:00 +20°C° 0.2 mm 4 mps 748 mmHg 83%
    Show more